Regional Weather Roundup
Issued by NWS

Home | Current Version | Previous Version | Text Only | Print | Product List | Glossary On
Versions: 1 2 3 4 5 6 7 8 9 10 11 12 13 14 15 16 17 18 19 20 21 22 23 24 25 26 27 28 29 30 31 32 33 34 35 36 37 38 39 40 41 42 43 44 45 46 47 48 49 50
000
ASUS43 KFSD 290010
RWRSD

WEATHER ROUNDUP FOR SOUTH DAKOTA
NATIONAL WEATHER SERVICE SIOUX FALLS SD
700 PM CDT FRI APR 28 2017

NOTE: "FAIR" INDICATES FEW OR NO CLOUDS BELOW 12,000 FEET WITH NO
SIGNIFICANT WEATHER AND/OR OBSTRUCTIONS TO VISIBILITY.


SDZ001>005-009-010-012>017-290100-
NORTHWEST AND NORTH CENTRAL SOUTH DAKOTA

CITY           SKY/WX    TMP DP  RH WIND       PRES   REMARKS
BUFFALO          N/A     50  23  34 E8        30.02R
FAITH            N/A     49  20  31 NE12      30.07R
MOBRIDGE       CLOUDY    55   9  16 NE8       30.05R
$$

SDZ012>016-024>037-041>051-057-063-072>074-290100-
SOUTHWEST AND SOUTH CENTRAL SOUTH DAKOTA

CITY           SKY/WX    TMP DP  RH WIND       PRES   REMARKS
RAPID CTY ARPT CLOUDY    46  26  45 NE10      30.06R
PIERRE         MOSUNNY   52  18  26 NE17      30.03R
CUSTER         CLOUDY    33  22  63 NE10      30.04R WCI  25
ELLSWORTH AFB  CLOUDY    46  26  46 NE9       30.06R
PHILIP         PTSUNNY   50  21  32 NE14      30.05R
PINE RIDGE     CLOUDY    45  29  53 NE12      30.03R
SPEARFISH      FAIR      43  25  49 E7        30.08R
WINNER         FAIR      52  26  36 E20       30.01R
$$

SDZ004>011-016>023-039-040-290100-
NORTHEAST SOUTH DAKOTA

CITY           SKY/WX    TMP DP  RH WIND       PRES   REMARKS
ABERDEEN       CLOUDY    53  14  21 N16       30.07R
WATERTOWN      MOSUNNY   48  19  31 N16       30.03R
BROOKINGS      PTSUNNY   46  26  45 N12       30.02R
SISSETON         N/A     53  16  23 N18       30.05R
$$

SDZ017-020-022-023-036>040-048>070-290100-
SOUTHEAST SOUTH DAKOTA

CITY           SKY/WX    TMP DP  RH WIND       PRES   REMARKS
SIOUX FALLS    CLOUDY    49  32  52 NE17      29.99R
HURON          MOSUNNY   52  20  28 NE16G25   30.03R
CHAMBERLAIN    SUNNY     53  24  32 N12G23    30.00R
MITCHELL       MOSUNNY   53  27  36 NE17      30.00S
YANKTON        CLOUDY    48  30  49 NE12      29.98R
$$

ABBREVIATIONS USED IN REMARKS
   TC - TEMPERATURE IN CELSIUS
  WCI - WIND CHILL INDEX
   HX - HEAT INDEX
  VSB - VISIBILITY




USA.gov is the U.S. government's official web portal to all federal, state and local government web resources and services.